Flag for South Korea Weather past 2 weeks in Daegu, South Korea

Now
77 °F

Clear.


Feels Like: 79 °F
Forecast: 71 / 94 °F
Wind: 7 mph from North

Location: Taegu Ab

Current Time: Aug 4, 2015 at 4:25:08 AM

Latest Report: Aug 4, 2015 at 4:00 AM


Visibility: 10 mi

Pressure: 29.80 "Hg

Humidity: 79%

Dew point: 70 °F

Location of DaeguLocation

Historic Weather in Daegu — Graph

°F

Daegu temperature yesterday

Maximum temperature yesterday: 97 °F (at 5:00 PM)
Minimum temperature yesterday: 79 °F (at 12:00 AM)
Average temperature yesterday: 86 °F

Past Weeks' High & Low Weather Summary

 TemperatureHumidityPressure
High99 °F (Jul 26, 3:00 PM)94% (Jul 21, 1:00 AM)29.86 "Hg (Jul 21, 1:00 AM)
Low68 °F (Jul 20, 3:00 AM)34% (Aug 3, 1:00 PM)29.65 "Hg (Jul 22, 3:00 PM)
Average83 °F71%29.75 "Hg
* Reported Jul 20 3:00 AM — Aug 4 3:00 AM, Daegu, Weather by CustomWeather, © 2015

Note: Actual official high and low records may vary slightly from our data, if they occured in-between our weather recording intervals... More about our weather records

Advertising

Daegu weather history for previous 24 hours

 ConditionsComfort  
Time TempWeatherWind HumidityBarometerVisibility
3:00 AM
Tue, Aug 4
77 °FClear.6 mph79%29.77 "Hg10 mi
2:00 AM79 °FClear.6 mph79%29.77 "Hg10 mi
1:00 AM77 °FClear.1 mph79%29.77 "Hg10 mi
12:00 AM79 °FClear.1 mph74%29.77 "Hg10 mi
11:00 PM
Mon, Aug 3
81 °FClear.2 mph74%29.77 "Hg10 mi
10:00 PM82 °FClear.2 mph66%29.77 "Hg10 mi
9:00 PM86 °FClear.3 mph59%29.77 "Hg10 mi
8:00 PM88 °FClear.5 mph52%29.74 "Hg10 mi
7:00 PM91 °FSunny.6 mph44%29.74 "Hg10 mi
6:00 PM95 °FScattered clouds.6 mph39%29.71 "HgN/A
5:00 PM97 °FScattered clouds.5 mph37%29.71 "HgN/A
4:00 PM95 °FScattered clouds.8 mph36%29.74 "HgN/A
3:00 PM95 °FPartly sunny.6 mph36%29.74 "HgN/A
2:00 PM95 °FPartly sunny.8 mph36%29.77 "HgN/A
1:00 PM95 °FScattered clouds.9 mph34%29.77 "HgN/A
12:00 PM91 °FScattered clouds.7 mph46%29.80 "HgN/A
11:00 AM90 °FPassing clouds.2 mph55%29.80 "HgN/A
10:00 AM86 °FScattered clouds.2 mph66%29.83 "Hg6 mi
9:00 AM82 °FScattered clouds.2 mph74%29.83 "Hg5 mi
8:00 AM81 °FScattered clouds.3 mph79%29.83 "Hg5 mi
7:00 AM79 °FScattered clouds.2 mph89%29.83 "Hg5 mi
6:00 AM79 °FScattered clouds.1 mph84%29.83 "Hg5 mi
5:00 AM79 °FPassing clouds.3 mph84%29.83 "Hg5 mi
4:00 AM79 °FPassing clouds.3 mph89%29.83 "Hg5 mi
Weather by CustomWeather, © 2015

See weather overviewHow to use our weather pages